Flag for Canada Weather past 2 weeks in Miramichi, New Brunswick, Canada

Now
64 °F

Overcast.


Feels Like: 64 °F
Forecast: 53 / 81 °F
Wind: No wind

Location: Bathurst Airport

Current Time: May 30, 2015 at 10:13:02 AM

Latest Report: May 30, 2015 at 9:00 AM


Visibility: 15 mi

Pressure: 30.01 "Hg

Humidity: 73%

Dew point: 55 °F

Location of MiramichiLocation

Historic Weather in Miramichi — Graph

°F

Miramichi temperature yesterday

Maximum temperature yesterday: 68 °F (at 4:00 PM)
Minimum temperature yesterday: 50 °F (at 6:00 AM)
Average temperature yesterday: 60 °F

Past Weeks' High & Low Weather Summary

 TemperatureHumidityPressure
High82 °F (May 28, 12:00 PM)100% (May 17, 2:51 PM)30.35 "Hg (May 17, 2:51 PM)
Low36 °F (May 22, 2:00 AM)12% (May 24, 6:00 PM)29.38 "Hg (May 20, 12:00 PM)
Average56 °F67%29.95 "Hg
* Reported May 15 8:00 AM — May 30 8:00 AM, Miramichi, Weather by CustomWeather, © 2015

Note: Actual official high and low records may vary slightly from our data, if they occured in-between our weather recording intervals... More about our weather records

Advertising

Miramichi weather history for previous 24 hours

 ConditionsComfort  
Time TempWeatherWind HumidityBarometerVisibility
8:00 AM
Sat, May 30
55 °FOvercast.2 mph82%30.03 "Hg15 mi
7:00 AM52 °FPartly sunny.2 mph88%30.04 "Hg15 mi
6:00 AM48 °FPartly cloudy.No wind94%30.06 "Hg15 mi
5:00 AM48 °FMostly cloudy.No wind87%30.08 "Hg15 mi
4:00 AM50 °FPassing clouds.3 mph82%30.10 "Hg15 mi
3:00 AM50 °FPassing clouds.5 mph82%30.12 "Hg15 mi
2:00 AM52 °FPassing clouds.5 mph77%30.15 "Hg15 mi
1:00 AM52 °FOvercast.2 mph77%30.17 "Hg15 mi
12:00 AM52 °FOvercast.5 mph77%30.18 "Hg12 mi
11:00 PM
Fri, May 29
54 °FPassing clouds.3 mph77%30.21 "Hg12 mi
10:00 PM55 °FMore clouds than sun.3 mph67%30.23 "Hg15 mi
9:00 PM59 °FPartly sunny.5 mph59%30.22 "Hg15 mi
8:00 PM63 °FPartly sunny.9 mph52%30.22 "Hg15 mi
7:00 PM66 °FOvercast.9 mph46%30.23 "Hg15 mi
6:00 PM68 °FOvercast.10 mph40%30.24 "Hg15 mi
5:00 PM68 °FOvercast.14 mph40%30.25 "Hg15 mi
4:00 PM68 °FPartly sunny.10 mph43%30.27 "Hg15 mi
3:00 PM64 °FPartly sunny.7 mph52%30.30 "Hg15 mi
2:00 PM61 °FPartly sunny.8 mph55%30.31 "Hg15 mi
1:00 PM63 °FPassing clouds.9 mph49%30.33 "Hg15 mi
12:00 PM61 °FPartly sunny.8 mph52%30.34 "Hg15 mi
11:00 AM59 °FPartly sunny.6 mph55%30.35 "Hg15 mi
10:00 AM59 °FScattered clouds.7 mph48%30.35 "Hg15 mi
Weather by CustomWeather, © 2015

See weather overviewHow to use our weather pages